Terug naar catalogus

STARLINK-31053

ActiefCommunicatieVLEO
NORAD 58549·PAYLOAD·🇺🇸 United States

Gelanceerd Dec 8, 2023 vanaf Vandenberg Space Force Base

Loading…

Volgende Passages (komende 24 uur)

TLE

VersSource: CelesTrak SupGP

Epoch: Sep 14, 2026, 21:35 UTC

1 58549C 23192U   26257.89979167  .00049298  00000+0  14567-2 0  2579
2 58549  53.1573 259.9116 0001364  92.1599 142.8388 15.34363077    13

Volg STARLINK-31053 in realtime met AllMySat

Download on the App Store